| time (UTC) | temp F | wind direction | speed MPH | gust MPH | rain 1hr in | rain 24hr in | rain mn in | humidity % | barometer mb |
| 20260508032848 | 76 | 256 | 3.0 | 7.0 | 0.00 | 0.00 | 0.00 | 13 | 1015.8 |
| 20260508032349 | 76 | 211 | 4.0 | 7.0 | 0.00 | 0.00 | 0.00 | 13 | 1015.6 |
| 20260508031848 | 76 | 214 | 4.0 | 8.0 | 0.00 | 0.00 | 0.00 | 12 | 1015.6 |
| 20260508031348 | 76 | 207 | 4.0 | 8.0 | 0.00 | 0.00 | 0.00 | 11 | 1015.5 |
| 20260508030848 | 75 | 207 | 3.0 | 6.0 | 0.00 | 0.00 | 0.00 | 9 | 1015.5 |
| 20260508025848 | 75 | 211 | 2.0 | 4.0 | 0.00 | 0.00 | 0.00 | 9 | 1015.2 |
| 20260508025347 | 74 | 217 | 2.0 | 4.0 | 0.00 | 0.00 | 0.00 | 10 | 1015.2 |
| 20260508024346 | 74 | 205 | 2.0 | 4.0 | 0.00 | 0.00 | 0.00 | 10 | 1015.1 |
| 20260508023846 | 75 | 202 | 2.0 | 4.0 | 0.00 | 0.00 | 0.00 | 10 | 1015.0 |
| 20260508022847 | 75 | 206 | 2.0 | 4.0 | 0.00 | 0.00 | 0.00 | 10 | 1014.9 |
| 20260508022349 | 76 | 201 | 2.0 | 4.0 | 0.00 | 0.00 | 0.00 | 10 | 1014.9 |
| 20260508021846 | 76 | 202 | 2.0 | 4.0 | 0.00 | 0.00 | 0.00 | 10 | 1014.9 |
| 20260508021347 | 75 | 234 | 1.0 | 3.0 | 0.00 | 0.00 | 0.00 | 10 | 1014.8 |
| 20260508020846 | 75 | 229 | 1.0 | 2.0 | 0.00 | 0.00 | 0.00 | 10 | 1014.8 |
| 20260508015846 | 75 | 254 | 1.0 | 3.0 | 0.00 | 0.00 | 0.00 | 11 | 1014.8 |
| 20260508015347 | 76 | 252 | 0.0 | 3.0 | 0.00 | 0.00 | 0.00 | 11 | 1014.8 |
| 20260508014846 | 77 | 240 | 0.0 | 1.0 | 0.00 | 0.00 | 0.00 | 12 | 1014.7 |
| 20260508014340 | 77 | 228 | 0.0 | 1.0 | 0.00 | 0.00 | 0.00 | 12 | 1014.7 |
| 20260508013838 | 78 | 195 | 0.0 | 0.0 | 0.00 | 0.00 | 0.00 | 12 | 1014.7 |
| 20260508013339 | 78 | 171 | 0.0 | 0.0 | 0.00 | 0.00 | 0.00 | 12 | 1014.7 |
| 20260508012336 | 79 | 171 | 0.0 | 3.0 | 0.00 | 0.00 | 0.00 | 11 | 1014.7 |
| 20260508011834 | 80 | 171 | 0.0 | 3.0 | 0.00 | 0.00 | 0.00 | 11 | 1014.7 |
| 20260508011333 | 80 | 113 | 0.0 | 0.0 | 0.00 | 0.00 | 0.00 | 11 | 1014.7 |
| 20260508010832 | 81 | 113 | 0.0 | 2.0 | 0.00 | 0.00 | 0.00 | 10 | 1014.7 |
| 20260508010331 | 81 | 111 | 1.0 | 3.0 | 0.00 | 0.00 | 0.00 | 10 | 1014.7 |
| 20260508005830 | 82 | 144 | 1.0 | 3.0 | 0.00 | 0.00 | 0.00 | 10 | 1014.6 |
| 20260508005330 | 83 | 147 | 1.0 | 3.0 | 0.00 | 0.00 | 0.00 | 10 | 1014.6 |
| 20260508004830 | 83 | 114 | 1.0 | 3.0 | 0.00 | 0.00 | 0.00 | 10 | 1014.6 |
| 20260508004329 | 83 | 130 | 1.0 | 3.0 | 0.00 | 0.00 | 0.00 | 10 | 1014.4 |
| 20260508003326 | 84 | 246 | 0.0 | 2.0 | 0.00 | 0.00 | 0.00 | 10 | 1014.4 |
| 20260508002828 | 84 | 246 | 1.0 | 4.0 | 0.00 | 0.00 | 0.00 | 10 | 1014.6 |
| 20260508002324 | 84 | 178 | 2.0 | 5.0 | 0.00 | 0.00 | 0.00 | 10 | 1014.6 |
| 20260508001824 | 84 | 183 | 2.0 | 5.0 | 0.00 | 0.00 | 0.00 | 10 | 1014.4 |
| 20260508001324 | 85 | 151 | 2.0 | 5.0 | 0.00 | 0.00 | 0.00 | 9 | 1014.6 |
| 20260508000824 | 85 | 326 | 2.0 | 5.0 | 0.00 | 0.00 | 0.00 | 10 | 1014.6 |
| 20260508000322 | 86 | 336 | 1.0 | 4.0 | 0.00 | 0.00 | 0.00 | 9 | 1014.6 |
| 20260507235820 | 87 | 110 | 1.0 | 4.0 | 0.00 | 0.00 | 0.00 | 9 | 1014.7 |
| 20260507235318 | 87 | 348 | 1.0 | 3.0 | 0.00 | 0.00 | 0.00 | 9 | 1014.7 |
| 20260507234816 | 87 | 119 | 1.0 | 3.0 | 0.00 | 0.00 | 0.00 | 9 | 1014.7 |
| 20260507234315 | 87 | 106 | 0.0 | 3.0 | 0.00 | 0.00 | 0.00 | 9 | 1014.7 |
| 20260507233810 | 87 | 134 | 0.0 | 2.0 | 0.00 | 0.00 | 0.00 | 9 | 1014.7 |
| 20260507233308 | 87 | 137 | 1.0 | 3.0 | 0.00 | 0.00 | 0.00 | 9 | 1014.8 |
| 20260507232806 | 86 | 137 | 1.0 | 3.0 | 0.00 | 0.00 | 0.00 | 10 | 1014.8 |
| 20260507231802 | 85 | 298 | 1.0 | 4.0 | 0.00 | 0.00 | 0.00 | 10 | 1014.7 |
| 20260507231305 | 87 | 36 | 1.0 | 4.0 | 0.00 | 0.00 | 0.00 | 9 | 1014.8 |
| 20260507230802 | 87 | 339 | 0.0 | 3.0 | 0.00 | 0.00 | 0.00 | 9 | 1014.9 |
| 20260507230303 | 88 | 42 | 1.0 | 2.0 | 0.00 | 0.00 | 0.00 | 9 | 1014.9 |
| 20260507225800 | 88 | 192 | 1.0 | 2.0 | 0.00 | 0.00 | 0.00 | 8 | 1014.9 |
| 20260507224759 | 89 | 182 | 1.0 | 2.0 | 0.00 | 0.00 | 0.00 | 8 | 1015.1 |
| 20260507224258 | 88 | 331 | 1.0 | 2.0 | 0.00 | 0.00 | 0.00 | 9 | 1015.1 |
| 20260507223754 | 88 | 132 | 1.0 | 3.0 | 0.00 | 0.00 | 0.00 | 9 | 1015.2 |
| 20260507223254 | 87 | 129 | 2.0 | 5.0 | 0.00 | 0.00 | 0.00 | 9 | 1015.4 |
| 20260507222751 | 87 | 105 | 1.0 | 5.0 | 0.00 | 0.00 | 0.00 | 9 | 1015.4 |
| 20260507222251 | 86 | 69 | 1.0 | 3.0 | 0.00 | 0.00 | 0.00 | 9 | 1015.4 |
| 20260507221750 | 86 | 355 | 1.0 | 3.0 | 0.00 | 0.00 | 0.00 | 10 | 1015.5 |
| 20260507221250 | 86 | 23 | 2.0 | 6.0 | 0.00 | 0.00 | 0.00 | 9 | 1015.6 |
| 20260507220750 | 85 | 140 | 2.0 | 7.0 | 0.00 | 0.00 | 0.00 | 10 | 1015.6 |
| 20260507220250 | 84 | 5 | 1.0 | 7.0 | 0.00 | 0.00 | 0.00 | 10 | 1015.7 |
| 20260507215749 | 85 | 346 | 1.0 | 5.0 | 0.00 | 0.00 | 0.00 | 9 | 1015.8 |
| 20260507215250 | 85 | 96 | 1.0 | 5.0 | 0.00 | 0.00 | 0.00 | 10 | 1015.8 |
| 20260507214750 | 85 | 39 | 1.0 | 3.0 | 0.00 | 0.00 | 0.00 | 9 | 1015.9 |
| 20260507214250 | 85 | 350 | 1.0 | 3.0 | 0.00 | 0.00 | 0.00 | 9 | 1016.0 |
| 20260507213748 | 86 | 30 | 1.0 | 5.0 | 0.00 | 0.00 | 0.00 | 8 | 1016.2 |
| 20260507213249 | 85 | 84 | 1.0 | 5.0 | 0.00 | 0.00 | 0.00 | 8 | 1016.3 |
| 20260507212749 | 85 | 355 | 1.0 | 5.0 | 0.00 | 0.00 | 0.00 | 8 | 1016.5 |
| 20260507212248 | 85 | 17 | 1.0 | 4.0 | 0.00 | 0.00 | 0.00 | 8 | 1016.5 |
| 20260507211748 | 85 | 69 | 1.0 | 4.0 | 0.00 | 0.00 | 0.00 | 8 | 1016.6 |
| 20260507211248 | 85 | 49 | 1.0 | 5.0 | 0.00 | 0.00 | 0.00 | 8 | 1016.7 |
| 20260507210749 | 85 | 319 | 1.0 | 5.0 | 0.00 | 0.00 | 0.00 | 8 | 1016.7 |
| 20260507205244 | 85 | 71 | 1.0 | 3.0 | 0.00 | 0.00 | 0.00 | 8 | 1016.9 |
| 20260507204745 | 86 | 355 | 1.0 | 3.0 | 0.00 | 0.00 | 0.00 | 8 | 1017.1 |
| 20260507204244 | 86 | 110 | 1.0 | 3.0 | 0.00 | 0.00 | 0.00 | 8 | 1017.2 |
| 20260507203744 | 85 | 22 | 1.0 | 3.0 | 0.00 | 0.00 | 0.00 | 8 | 1017.3 |
| 20260507203245 | 84 | 89 | 1.0 | 3.0 | 0.00 | 0.00 | 0.00 | 8 | 1017.3 |
| 20260507202744 | 83 | 146 | 0.0 | 2.0 | 0.00 | 0.00 | 0.00 | 9 | 1017.4 |
| 20260507202245 | 84 | 164 | 0.0 | 2.0 | 0.00 | 0.00 | 0.00 | 8 | 1017.5 |
| 20260507201743 | 85 | 150 | 0.0 | 3.0 | 0.00 | 0.00 | 0.00 | 8 | 1017.5 |
| 20260507201240 | 85 | 161 | 1.0 | 5.0 | 0.00 | 0.00 | 0.00 | 9 | 1017.7 |
| 20260507200740 | 85 | 98 | 1.0 | 5.0 | 0.00 | 0.00 | 0.00 | 10 | 1017.7 |
| 20260507200240 | 84 | 43 | 1.0 | 4.0 | 0.00 | 0.00 | 0.00 | 9 | 1017.7 |
| 20260507195740 | 83 | 71 | 1.0 | 4.0 | 0.00 | 0.00 | 0.00 | 10 | 1017.9 |
| 20260507195240 | 83 | 62 | 1.0 | 4.0 | 0.00 | 0.00 | 0.00 | 10 | 1017.9 |
| 20260507194740 | 83 | 65 | 1.0 | 3.0 | 0.00 | 0.00 | 0.00 | 10 | 1018.0 |
| 20260507194240 | 83 | 110 | 1.0 | 4.0 | 0.00 | 0.00 | 0.00 | 12 | 1018.1 |
| 20260507193739 | 83 | 66 | 1.0 | 4.0 | 0.00 | 0.00 | 0.00 | 11 | 1018.2 |
| 20260507193237 | 82 | 219 | 0.0 | 3.0 | 0.00 | 0.00 | 0.00 | 12 | 1018.2 |
| 20260507192738 | 82 | 289 | 1.0 | 3.0 | 0.00 | 0.00 | 0.00 | 10 | 1018.3 |
| 20260507192236 | 82 | 281 | 1.0 | 3.0 | 0.00 | 0.00 | 0.00 | 10 | 1018.4 |
| 20260507191736 | 82 | 111 | 1.0 | 3.0 | 0.00 | 0.00 | 0.00 | 11 | 1018.5 |
| 20260507191232 | 81 | 107 | 1.0 | 6.0 | 0.00 | 0.00 | 0.00 | 13 | 1018.6 |
| 20260507190732 | 80 | 59 | 1.0 | 6.0 | 0.00 | 0.00 | 0.00 | 12 | 1018.9 |
| 20260507190232 | 79 | 66 | 1.0 | 3.0 | 0.00 | 0.00 | 0.00 | 13 | 1018.9 |
| 20260507185730 | 80 | 82 | 0.0 | 2.0 | 0.00 | 0.00 | 0.00 | 11 | 1018.9 |
| 20260507185228 | 80 | 119 | 1.0 | 3.0 | 0.00 | 0.00 | 0.00 | 13 | 1019.0 |
| 20260507184730 | 81 | 17 | 2.0 | 3.0 | 0.00 | 0.00 | 0.00 | 11 | 1019.1 |
| 20260507184226 | 80 | 81 | 2.0 | 5.0 | 0.00 | 0.00 | 0.00 | 12 | 1019.0 |
| 20260507183226 | 79 | 34 | 1.0 | 3.0 | 0.00 | 0.00 | 0.00 | 12 | 1019.2 |
| 20260507182726 | 79 | 45 | 1.0 | 3.0 | 0.00 | 0.00 | 0.00 | 13 | 1019.3 |
| 20260507182226 | 80 | 349 | 1.0 | 8.0 | 0.00 | 0.00 | 0.00 | 12 | 1019.3 |
| 20260507181726 | 80 | 30 | 1.0 | 8.0 | 0.00 | 0.00 | 0.00 | 12 | 1019.4 |
| 20260507181226 | 80 | 345 | 1.0 | 4.0 | 0.00 | 0.00 | 0.00 | 12 | 1019.4 |
| 20260507180726 | 80 | 10 | 1.0 | 4.0 | 0.00 | 0.00 | 0.00 | 13 | 1019.6 |
| 20260507180222 | 79 | 5 | 1.0 | 4.0 | 0.00 | 0.00 | 0.00 | 14 | 1019.6 |
| 20260507175718 | 79 | 20 | 1.0 | 5.0 | 0.00 | 0.00 | 0.00 | 14 | 1019.6 |
| 20260507175219 | 78 | 103 | 1.0 | 5.0 | 0.00 | 0.00 | 0.00 | 15 | 1019.7 |
| 20260507174718 | 78 | 327 | 1.0 | 3.0 | 0.00 | 0.00 | 0.00 | 14 | 1019.7 |
| 20260507173216 | 76 | 341 | 1.0 | 6.0 | 0.00 | 0.00 | 0.00 | 15 | 1019.9 |
| 20260507172212 | 76 | 344 | 1.0 | 5.0 | 0.00 | 0.00 | 0.00 | 15 | 1020.0 |
| 20260507171712 | 75 | 349 | 1.0 | 5.0 | 0.00 | 0.00 | 0.00 | 15 | 1020.1 |
| 20260507171210 | 74 | 336 | 0.0 | 2.0 | 0.00 | 0.00 | 0.00 | 17 | 1020.0 |
| 20260507170710 | 74 | 355 | 0.0 | 1.0 | 0.00 | 0.00 | 0.00 | 15 | 1020.1 |
| 20260507165210 | 74 | 355 | 2.0 | 5.0 | 0.00 | 0.00 | 0.00 | 16 | 1020.4 |
| 20260507164706 | 73 | 336 | 2.0 | 5.0 | 0.00 | 0.00 | 0.00 | 16 | 1020.4 |
| 20260507163704 | 73 | 329 | 1.0 | 4.0 | 0.00 | 0.00 | 0.00 | 17 | 1020.4 |
| 20260507163204 | 73 | 325 | 1.0 | 4.0 | 0.00 | 0.00 | 0.00 | 15 | 1020.5 |
| 20260507162703 | 72 | 338 | 0.0 | 4.0 | 0.00 | 0.00 | 0.00 | 16 | 1020.5 |
| 20260507161704 | 71 | 306 | 1.0 | 4.0 | 0.00 | 0.00 | 0.00 | 16 | 1020.6 |
| 20260507161204 | 71 | 351 | 1.0 | 4.0 | 0.00 | 0.00 | 0.00 | 16 | 1020.6 |
| 20260507160704 | 71 | 42 | 1.0 | 5.0 | 0.00 | 0.00 | 0.00 | 15 | 1020.7 |
| 20260507160202 | 71 | 23 | 1.0 | 5.0 | 0.00 | 0.00 | 0.00 | 18 | 1020.7 |
| 20260507155704 | 71 | 345 | 2.0 | 6.0 | 0.00 | 0.00 | 0.00 | 16 | 1020.7 |
| 20260507155202 | 71 | 313 | 2.0 | 6.0 | 0.00 | 0.00 | 0.00 | 18 | 1020.8 |
| 20260507154702 | 71 | 331 | 2.0 | 5.0 | 0.00 | 0.00 | 0.00 | 17 | 1020.8 |
| 20260507154202 | 70 | 319 | 1.0 | 5.0 | 0.00 | 0.00 | 0.00 | 18 | 1020.8 |
| 20260507153702 | 70 | 312 | 1.0 | 5.0 | 0.00 | 0.00 | 0.00 | 19 | 1020.9 |
| 20260507153202 | 69 | 339 | 2.0 | 5.0 | 0.00 | 0.00 | 0.00 | 18 | 1020.9 |
| 20260507152702 | 69 | 332 | 1.0 | 5.0 | 0.00 | 0.00 | 0.00 | 19 | 1020.9 |
| 20260507152202 | 69 | 313 | 1.0 | 5.0 | 0.00 | 0.00 | 0.00 | 20 | 1020.8 |
| 20260507151702 | 68 | 351 | 1.0 | 5.0 | 0.00 | 0.00 | 0.00 | 20 | 1020.9 |
| 20260507151202 | 68 | 355 | 1.0 | 5.0 | 0.00 | 0.00 | 0.00 | 20 | 1021.0 |
| 20260507150700 | 67 | 328 | 1.0 | 3.0 | 0.00 | 0.00 | 0.00 | 21 | 1021.1 |
| 20260507150159 | 67 | 319 | 0.0 | 2.0 | 0.00 | 0.00 | 0.00 | 21 | 1021.1 |
| 20260507145658 | 67 | 350 | 0.0 | 4.0 | 0.00 | 0.00 | 0.00 | 21 | 1021.3 |
| 20260507145201 | 67 | 336 | 0.0 | 4.0 | 0.00 | 0.00 | 0.00 | 21 | 1021.3 |
| 20260507144658 | 67 | 326 | 0.0 | 3.0 | 0.00 | 0.00 | 0.00 | 22 | 1021.3 |
| 20260507144158 | 66 | 341 | 0.0 | 3.0 | 0.00 | 0.00 | 0.00 | 21 | 1021.3 |
| 20260507143657 | 66 | 355 | 1.0 | 4.0 | 0.00 | 0.00 | 0.00 | 22 | 1021.4 |
| 20260507143154 | 66 | 351 | 1.0 | 4.0 | 0.00 | 0.00 | 0.00 | 22 | 1021.4 |
| 20260507142654 | 65 | 342 | 1.0 | 3.0 | 0.00 | 0.00 | 0.00 | 23 | 1021.4 |
| 20260507142154 | 65 | 331 | 1.0 | 4.0 | 0.00 | 0.00 | 0.00 | 24 | 1021.4 |
| 20260507141648 | 64 | 339 | 1.0 | 4.0 | 0.00 | 0.00 | 0.00 | 25 | 1021.4 |
| 20260507141146 | 64 | 344 | 1.0 | 4.0 | 0.00 | 0.00 | 0.00 | 24 | 1021.4 |
| 20260507140644 | 64 | 332 | 0.0 | 4.0 | 0.00 | 0.00 | 0.00 | 25 | 1021.4 |
| 20260507140144 | 63 | 284 | 0.0 | 0.0 | 0.00 | 0.00 | 0.00 | 26 | 1021.4 |
| 20260507135646 | 62 | 284 | 0.0 | 0.0 | 0.00 | 0.00 | 0.00 | 27 | 1021.4 |
| 20260507135138 | 61 | 284 | 0.0 | 0.0 | 0.00 | 0.00 | 0.00 | 27 | 1021.3 |
| 20260507134637 | 60 | 234 | 0.0 | 2.0 | 0.00 | 0.00 | 0.00 | 25 | 1021.1 |
| 20260507133630 | 59 | 265 | 0.0 | 0.0 | 0.00 | 0.00 | 0.00 | 25 | 1021.0 |
| 20260507132624 | 58 | 294 | 0.0 | 0.0 | 0.00 | 0.00 | 0.00 | 28 | 1021.0 |
| 20260507132122 | 57 | 294 | 0.0 | 1.0 | 0.00 | 0.00 | 0.00 | 27 | 1021.0 |
| 20260507131119 | 57 | 294 | 0.0 | 2.0 | 0.00 | 0.00 | 0.00 | 26 | 1021.0 |
| 20260507130118 | 56 | 255 | 0.0 | 2.0 | 0.00 | 0.00 | 0.00 | 27 | 1020.9 |
| 20260507125615 | 56 | 257 | 1.0 | 3.0 | 0.00 | 0.00 | 0.00 | 28 | 1020.9 |
| 20260507125116 | 55 | 260 | 2.0 | 3.0 | 0.00 | 0.00 | 0.00 | 28 | 1020.9 |
| 20260507124614 | 55 | 245 | 1.0 | 3.0 | 0.00 | 0.00 | 0.00 | 28 | 1020.9 |
| 20260507124114 | 55 | 255 | 1.0 | 3.0 | 0.00 | 0.00 | 0.00 | 29 | 1020.9 |
| 20260507123614 | 55 | 259 | 1.0 | 3.0 | 0.00 | 0.00 | 0.00 | 30 | 1020.8 |
| 20260507123114 | 54 | 254 | 1.0 | 3.0 | 0.00 | 0.00 | 0.00 | 30 | 1020.9 |
| 20260507122614 | 54 | 266 | 0.0 | 2.0 | 0.00 | 0.00 | 0.00 | 31 | 1020.8 |
| 20260507122112 | 54 | 262 | 1.0 | 3.0 | 0.00 | 0.00 | 0.00 | 32 | 1020.9 |
| 20260507121108 | 55 | 292 | 0.0 | 2.0 | 0.00 | 0.00 | 0.00 | 32 | 1021.0 |
| 20260507120606 | 56 | 259 | 0.0 | 2.0 | 0.00 | 0.00 | 0.00 | 33 | 1020.9 |
| 20260507115104 | 57 | 250 | 1.0 | 2.0 | 0.00 | 0.00 | 0.00 | 33 | 1021.0 |
| 20260507114604 | 57 | 244 | 1.0 | 3.0 | 0.00 | 0.00 | 0.00 | 33 | 1020.9 |
| 20260507114103 | 57 | 238 | 1.0 | 3.0 | 0.00 | 0.00 | 0.00 | 35 | 1020.9 |
| 20260507113605 | 56 | 265 | 1.0 | 2.0 | 0.00 | 0.00 | 0.00 | 36 | 1021.0 |
| 20260507113104 | 56 | 260 | 0.0 | 2.0 | 0.00 | 0.00 | 0.00 | 37 | 1021.0 |
| 20260507112604 | 56 | 258 | 1.0 | 2.0 | 0.00 | 0.00 | 0.00 | 38 | 1021.0 |
| 20260507112104 | 55 | 258 | 1.0 | 2.0 | 0.00 | 0.00 | 0.00 | 40 | 1021.0 |
| 20260507111602 | 55 | 258 | 1.0 | 3.0 | 0.00 | 0.00 | 0.00 | 40 | 1021.0 |
| 20260507111102 | 55 | 269 | 1.0 | 3.0 | 0.00 | 0.00 | 0.00 | 40 | 1020.9 |
| 20260507110602 | 55 | 269 | 2.0 | 3.0 | 0.00 | 0.00 | 0.00 | 41 | 1020.9 |
| 20260507105600 | 54 | 269 | 2.0 | 3.0 | 0.00 | 0.00 | 0.00 | 41 | 1020.9 |
| 20260507105100 | 54 | 256 | 1.0 | 3.0 | 0.00 | 0.00 | 0.00 | 42 | 1021.0 |
| 20260507104600 | 54 | 259 | 1.0 | 3.0 | 0.00 | 0.00 | 0.00 | 42 | 1021.0 |
| 20260507104100 | 54 | 262 | 1.0 | 2.0 | 0.00 | 0.00 | 0.00 | 41 | 1020.9 |
| 20260507103555 | 54 | 273 | 1.0 | 2.0 | 0.00 | 0.00 | 0.00 | 41 | 1021.0 |
| 20260507103056 | 55 | 265 | 1.0 | 2.0 | 0.00 | 0.00 | 0.00 | 41 | 1021.0 |
| 20260507102553 | 55 | 264 | 1.0 | 2.0 | 0.00 | 0.00 | 0.00 | 40 | 1020.9 |
| 20260507102054 | 55 | 257 | 1.0 | 2.0 | 0.00 | 0.00 | 0.00 | 40 | 1020.9 |
| 20260507101554 | 55 | 263 | 1.0 | 2.0 | 0.00 | 0.00 | 0.00 | 40 | 1021.0 |
| 20260507101055 | 55 | 256 | 1.0 | 2.0 | 0.00 | 0.00 | 0.00 | 40 | 1021.0 |
| 20260507100553 | 55 | 264 | 0.0 | 1.0 | 0.00 | 0.00 | 0.00 | 40 | 1021.0 |
| 20260507100051 | 55 | 263 | 0.0 | 1.0 | 0.00 | 0.00 | 0.00 | 40 | 1020.9 |
| 20260507095551 | 55 | 269 | 0.0 | 2.0 | 0.00 | 0.00 | 0.00 | 40 | 1020.8 |
| 20260507091546 | 57 | 263 | 1.0 | 2.0 | 0.00 | 0.00 | 0.00 | 38 | 1020.5 |
| 20260507091044 | 57 | 259 | 1.0 | 2.0 | 0.00 | 0.00 | 0.00 | 37 | 1020.5 |
| 20260507090542 | 57 | 250 | 0.0 | 2.0 | 0.00 | 0.00 | 0.00 | 37 | 1020.5 |
| 20260507090041 | 57 | 254 | 0.0 | 2.0 | 0.00 | 0.00 | 0.00 | 37 | 1020.5 |
| 20260507085540 | 57 | 259 | 0.0 | 1.0 | 0.00 | 0.00 | 0.00 | 37 | 1020.5 |
| 20260507085040 | 57 | 258 | 0.0 | 2.0 | 0.00 | 0.00 | 0.00 | 37 | 1020.5 |
| 20260507084538 | 57 | 258 | 0.0 | 2.0 | 0.00 | 0.00 | 0.00 | 37 | 1020.5 |
| 20260507084038 | 57 | 261 | 0.0 | 2.0 | 0.00 | 0.00 | 0.00 | 37 | 1020.5 |
| 20260507083538 | 57 | 261 | 0.0 | 2.0 | 0.00 | 0.00 | 0.00 | 37 | 1020.5 |
| 20260507083038 | 57 | 288 | 0.0 | 2.0 | 0.00 | 0.00 | 0.00 | 37 | 1020.5 |
| 20260507082538 | 57 | 288 | 1.0 | 2.0 | 0.00 | 0.00 | 0.00 | 37 | 1020.5 |
| 20260507082035 | 57 | 288 | 1.0 | 2.0 | 0.00 | 0.00 | 0.00 | 37 | 1020.5 |
| 20260507081536 | 57 | 261 | 1.0 | 2.0 | 0.00 | 0.00 | 0.00 | 37 | 1020.4 |
| 20260507081035 | 57 | 255 | 0.0 | 2.0 | 0.00 | 0.00 | 0.00 | 37 | 1020.4 |
| 20260507080030 | 57 | 258 | 0.0 | 2.0 | 0.00 | 0.00 | 0.00 | 37 | 1020.4 |
| 20260507075530 | 57 | 271 | 0.0 | 2.0 | 0.00 | 0.00 | 0.00 | 37 | 1020.4 |
| 20260507074528 | 57 | 260 | 0.0 | 2.0 | 0.00 | 0.00 | 0.00 | 37 | 1020.4 |
| 20260507073026 | 58 | 275 | 0.0 | 2.0 | 0.00 | 0.00 | 0.00 | 36 | 1020.5 |
| 20260507072026 | 58 | 277 | 1.0 | 3.0 | 0.00 | 0.00 | 0.00 | 36 | 1020.4 |
| 20260507071525 | 58 | 258 | 2.0 | 3.0 | 0.00 | 0.00 | 0.00 | 36 | 1020.4 |
| 20260507071024 | 58 | 257 | 1.0 | 3.0 | 0.00 | 0.00 | 0.00 | 35 | 1020.2 |
| 20260507070024 | 59 | 269 | 1.0 | 3.0 | 0.00 | 0.00 | 0.00 | 35 | 1020.2 |
| 20260507065523 | 59 | 264 | 1.0 | 2.0 | 0.00 | 0.00 | 0.00 | 35 | 1020.2 |
| 20260507065024 | 59 | 269 | 1.0 | 3.0 | 0.00 | 0.00 | 0.00 | 35 | 1020.1 |
| 20260507064524 | 59 | 279 | 1.0 | 3.0 | 0.00 | 0.00 | 0.00 | 35 | 1020.1 |
| 20260507064024 | 59 | 261 | 2.0 | 3.0 | 0.00 | 0.00 | 0.00 | 34 | 1020.0 |
| 20260507063524 | 60 | 265 | 2.0 | 3.0 | 0.00 | 0.00 | 0.00 | 34 | 1020.0 |
| 20260507063024 | 60 | 285 | 1.0 | 3.0 | 0.00 | 0.00 | 0.00 | 34 | 1019.9 |
| 20260507062523 | 60 | 264 | 1.0 | 3.0 | 0.00 | 0.00 | 0.00 | 34 | 1019.9 |
| 20260507062023 | 60 | 255 | 1.0 | 3.0 | 0.00 | 0.00 | 0.00 | 34 | 1019.8 |
| 20260507061524 | 60 | 260 | 1.0 | 3.0 | 0.00 | 0.00 | 0.00 | 34 | 1019.8 |
| 20260507061024 | 60 | 257 | 1.0 | 3.0 | 0.00 | 0.00 | 0.00 | 33 | 1019.6 |
| 20260507055524 | 61 | 260 | 1.0 | 4.0 | 0.00 | 0.00 | 0.00 | 32 | 1019.6 |
| 20260507055024 | 62 | 260 | 1.0 | 4.0 | 0.00 | 0.00 | 0.00 | 32 | 1019.6 |
| 20260507054523 | 62 | 260 | 1.0 | 3.0 | 0.00 | 0.00 | 0.00 | 31 | 1019.6 |
| 20260507054024 | 62 | 248 | 1.0 | 3.0 | 0.00 | 0.00 | 0.00 | 31 | 1019.6 |
| 20260507053523 | 62 | 254 | 1.0 | 2.0 | 0.00 | 0.00 | 0.00 | 31 | 1019.6 |
| 20260507053024 | 62 | 257 | 1.0 | 3.0 | 0.00 | 0.00 | 0.00 | 31 | 1019.3 |
| 20260507052020 | 63 | 259 | 1.0 | 2.0 | 0.00 | 0.00 | 0.00 | 31 | 1019.2 |
| 20260507051520 | 63 | 258 | 1.0 | 3.0 | 0.00 | 0.00 | 0.00 | 31 | 1019.1 |
| 20260507051019 | 63 | 254 | 2.0 | 3.0 | 0.00 | 0.00 | 0.00 | 30 | 1019.1 |
| 20260507050014 | 64 | 274 | 2.0 | 5.0 | 0.00 | 0.00 | 0.00 | 30 | 1019.0 |
| 20260507045516 | 64 | 271 | 2.0 | 5.0 | 0.00 | 0.00 | 0.00 | 30 | 1019.0 |
| 20260507045014 | 64 | 259 | 2.0 | 4.0 | 0.00 | 0.00 | 0.00 | 29 | 1018.9 |
| 20260507044512 | 64 | 236 | 2.0 | 3.0 | 0.00 | 0.00 | 0.00 | 29 | 1018.9 |
| 20260507044011 | 65 | 265 | 1.0 | 3.0 | 0.00 | 0.00 | 0.00 | 29 | 1018.9 |
| 20260507043510 | 65 | 250 | 1.0 | 3.0 | 0.00 | 0.00 | 0.00 | 28 | 1018.9 |
| 20260507043011 | 65 | 254 | 1.0 | 3.0 | 0.00 | 0.00 | 0.00 | 28 | 1018.6 |
| 20260507042511 | 65 | 269 | 1.0 | 2.0 | 0.00 | 0.00 | 0.00 | 28 | 1018.4 |
| 20260507042010 | 65 | 253 | 0.0 | 3.0 | 0.00 | 0.00 | 0.00 | 28 | 1018.4 |
| 20260507041511 | 66 | 258 | 0.0 | 3.0 | 0.00 | 0.00 | 0.00 | 28 | 1018.2 |
| 20260507041009 | 66 | 261 | 0.0 | 1.0 | 0.00 | 0.00 | 0.00 | 27 | 1018.2 |
| 20260507040508 | 66 | 275 | 0.0 | 3.0 | 0.00 | 0.00 | 0.00 | 27 | 1018.1 |